Regional Weather Roundup
Issued by NWS

Home | Current Version | Previous Version | Graphics & Text | Print | Product List | Glossary On
Versions: 1 2 3 4 5 6 7 8 9 10 11 12 13 14 15 16 17 18 19 20 21 22 23 24 25 26 27 28 29 30 31 32 33 34 35 36 37 38 39 40 41 42 43 44 45 46 47 48 49 50
759
ASUS43 KDMX 280601
RWRIA

WEATHER ROUNDUP FOR IOWA
NATIONAL WEATHER SERVICE DES MOINES IA
100 AM CDT FRI APR 28 2017

NOTE: "FAIR" INDICATES FEW OR NO CLOUDS BELOW 12,000 FEET WITH NO
SIGNIFICANT WEATHER AND/OR OBSTRUCTIONS TO VISIBILITY.

* - THESE STATIONS ARE NOT NWS STATIONS...THUS NOT UNDER NWS
QUALITY CONTROL.  THEY ALSO DO NOT REPORT WEATHER SUCH
AS PRECIPITATION OR FOG.

IAZ001>003-012>014-020>022-031>034-043>046-280700-
   NORTHWEST IOWA

CITY           SKY/WX    TMP DP  RH WIND       PRES   REMARKS
CARROLL *      CLOUDY    36  34  93 CALM      29.84R
CHEROKEE *     CLEAR     33  31  92 NE6       29.86R WCI  28
DENISON *      CLEAR     37  32  81 E8        29.84R WCI  31
LE MARS *      CLEAR     36  32  87 NE8       29.86R WCI  29
ORANGE CITY *  CLEAR     34  30  86 E9        29.85R WCI  26
SHELDON *      CLEAR     32  28  86 E7        29.84R WCI  26
SIOUX CITY     CLEAR     39  33  79 E8        29.82R WCI  33
6HR MIN TEMP:  37; 6HR MAX TEMP:  53;

SPENCER        CLEAR     29  26  89 E5        29.86R WCI  24
6HR MIN TEMP:  29; 6HR MAX TEMP:  44;

STORM LAKE *   CLEAR     34  30  86 NE15G22   29.84R WCI  24
$$

IAZ055>058-069>071-079>083-090>094-280700-
   SOUTHWEST IOWA

CITY           SKY/WX    TMP DP  RH WIND       PRES   REMARKS
ATLANTIC *     CLOUDY    45  36  70 NE10      29.81R
AUDUBON *      MOCLDY    37  32  81 NE6       29.83R WCI  33
CLARINDA *     CLOUDY    52  37  58 CALM      29.79F
COUNCIL BLFS * CLOUDY    46  37  71 NE8       29.79R
CRESTON *      CLOUDY    46  36  66 E14       29.82R
HARLAN  *      CLEAR     41  34  75 NE7       29.85R
LAMONI         CLOUDY    49  39  68 NE12      29.79R
6HR MIN TEMP:  49; 6HR MAX TEMP:  57; 6HR PCP: TRACE;

RED OAK *      CLOUDY    48  37  66 NE6       29.79R
SHENANDOAH *   CLOUDY    52  37  58 NE6       29.78S
$$

IAZ047>049-059>061-072>074-084-280700-
   CENTRAL IOWA

CITY           SKY/WX    TMP DP  RH WIND       PRES   REMARKS
AMES           CLOUDY    34  32  92 CALM      29.84S
6HR MIN TEMP:  34; 6HR MAX TEMP:  48;

ANKENY *       CLOUDY    39  32  75 NE6       29.86S WCI  35
BOONE *        CLOUDY    36  32  87 NE7       29.83S WCI  30
CHARITON *     CLOUDY    43  36  75 NE9       29.82S
DES MOINES     CLOUDY    43  31  62 NE9       29.85R
6HR MIN TEMP:  43; 6HR MAX TEMP:  56;

GRINNELL*      PTCLDY    38  32  77 NE7       29.86S WCI  33
KNOXVILLE *    CLOUDY    43  34  70 E8        29.83S
MARSHALLTOWN   PTCLDY    34  30  85 N7        29.84S WCI  28
6HR MIN TEMP:  33; 6HR MAX TEMP:  44;

NEWTON *       CLOUDY    37  32  81 NE8       29.84F WCI  31
PELLA *        CLOUDY    41  33  75 NE3       29.86S
PERRY *          N/A     39  31  75 E7        29.84S WCI  34
$$

IAZ004>006-015-016-023>025-035-036-280700-
   NORTH CENTRAL IOWA

CITY           SKY/WX    TMP DP  RH WIND       PRES   REMARKS
ALGONA *       CLEAR     30  28  93 NE3       29.86S
CLARION *      CLOUDY    32  30  93 N9        29.86R WCI  24
ESTHERVILLE    CLEAR     29  28  96 CALM      29.85S
6HR MIN TEMP:  28; 6HR MAX TEMP:  40;

FORT DODGE *   PTCLDY    34  27  75 N9        29.86R WCI  26
MASON CITY     CLEAR     30  25  81 N7        29.87S WCI  23
6HR MIN TEMP:  30; 6HR MAX TEMP:  38;

FOREST CITY *    N/A     32  23  69 NW5       29.86S WCI  27
WEBSTER CITY * CLOUDY    34  30  86 N9G15     29.83R WCI  26
IOWA FALLS *     N/A     35  31  85 N6        29.86R WCI  30
$$

IAZ007>011-017>019-026>030-037>042-050>054-066-280700-
   NORTHEAST IOWA

CITY           SKY/WX    TMP DP  RH WIND       PRES   REMARKS
CEDAR RAPIDS   CLOUDY    35  32  88 CALM      29.86R
6HR MIN TEMP:  33; 6HR MAX TEMP:  44;

CHARLES CITY * CLEAR     34  28  80 NW8       29.87R WCI  27
CLINTON *      CLOUDY    37  34  89 CALM      29.89R
DECORAH *      CLOUDY    34  28  80 NW10G17   29.84R WCI  26
DUBUQUE        CLEAR     32  30  92 SW5       29.86R WCI  27
6HR MIN TEMP:  32; 6HR MAX TEMP:  40;

MONTICELLO *   CLEAR     34  30  86 CALM      29.86S
WATERLOO       CLOUDY    33  28  81 CALM      29.86R
6HR MIN TEMP:  32; 6HR MAX TEMP:  42;

$$

IAZ064-065-067-068-078-280700-
   EAST CENTRAL IOWA

CITY           SKY/WX    TMP DP  RH WIND       PRES   REMARKS
DAVENPORT      CLEAR     36  34  92 N3        29.88R
6HR MIN TEMP:  36; 6HR MAX TEMP:  46;

IOWA CITY      PTCLDY    39  34  82 CALM      29.89R
6HR MIN TEMP:  39; 6HR MAX TEMP:  48;

MUSCATINE *    CLOUDY    39  36  87 NE5       29.88S
QUAD CITIES    PTCLDY    37  34  89 CALM      29.87S FOG
6HR MIN TEMP:  36; 6HR MAX TEMP:  48;

$$

IAZ062-063-075>077-085>089-095>099-280700-
   SOUTHEAST IOWA

CITY           SKY/WX    TMP DP  RH WIND       PRES   REMARKS
BURLINGTON     CLOUDY    50  45  83 E3        29.82F
6HR MIN TEMP:  47; 6HR MAX TEMP:  54;

FAIRFIELD *    CLOUDY    41  34  75 NE12      29.84S
FORT MADISON * CLOUDY    50  45  81 CALM      29.83F
KEOKUK *       CLOUDY    52  46  82 NE5       29.80F
OSKALOOSA *      N/A     40  34  78 NE12      29.85F WCI  33
OTTUMWA        PTCLDY    42  36  79 NE10      29.83F
6HR MIN TEMP:  42; 6HR MAX TEMP:  55;

WASHINGTON *   CLOUDY    41  37  87 NE9       29.87S
$$

ABBREVIATIONS USED IN REMARKS
   TC - TEMPERATURES IN CELSIUS
  WCI - WIND CHILL INDEX
   HX - HEAT INDEX
  VSB - VISIBILITY
$$





USA.gov is the U.S. government's official web portal to all federal, state and local government web resources and services.